[[{"header":{"parameterUnit":"m.s-1","parameterCategory":1,"la1":30.2991,"la2":30.254,"lo1":-89.0895,"lo2":-89.0444,"dy":0.0017,"dx":0.0017,"nx":28,"ny":28,"refTime":"2025-06-10T21:00:00:Z","depth":0,"parameterNumber":2,"parameterNumberName":"U-component_of_WINDS"},"data":[0,0,0,0,0,0,0,0,0,0,0,0,0,0,0,0,0,0,0,0,0,0,0,0,0,0,0,0,0,0,0,0,0,0,0,0,0,0,0,0,0,0,0,0,0,0,0,0,0,0,0,0,0,0,0,0,0,0,-0.8503,-0.8505,0,-0.8666,-0.8668,-0.867,-0.8721,-0.8721,-0.872,-0.8719,-0.889,-0.8895,-0.8901,0,0,0,0,0,0,0,0,0,0,0,0,0,-0.8239,-0.8244,-0.8503,-0.8505,-0.8507,-0.8666,-0.8668,-0.8671,-0.8722,-0.8721,-0.872,-0.8719,-0.8889,-0.8895,-0.8901,0,0,0,0,0,0,0,0,0,0,0,0,0,-0.8373,-0.8245,-0.8502,-0.8551,-0.8557,-0.8666,-0.8668,-0.8671,-0.8722,-0.8721,-0.8719,-0.8718,-0.8886,-0.8894,-0.8902,-0.8975,0,0,-0.8926,-0.893,0,0,0,0,0,0,0,0,-0.8365,-0.8383,-0.8542,-0.8548,-0.8555,-0.8672,-0.8638,-0.8773,-0.8722,-0.8659,-0.8719,-0.8718,-0.8819,-0.8832,-0.8866,-0.8983,-0.899,-0.8927,-0.8932,-0.8935,-0.8937,0,0,0,0,0,0,0,-0.8356,-0.8376,-0.8568,-0.8544,-0.8552,-0.8567,-0.8584,-0.8664,-0.8744,-0.8665,-0.8669,-0.8687,-0.8822,-0.8858,-0.887,-0.8993,-0.8927,-0.8934,-0.8939,-0.8942,-0.918,-0.9181,0,0,0,0,0,0,-0.8338,-0.8368,-0.8562,-0.8573,-0.8455,-0.8572,-0.8592,-0.8636,-0.8743,-0.8758,-0.8688,-0.8689,-0.8845,-0.8861,-0.8876,-0.897,-0.8935,-0.8943,-0.8947,-0.9178,-0.918,-0.9182,0,0,0,0,0,0,-0.8332,-0.8355,-0.8556,-0.8471,-0.8498,-0.8578,-0.8627,-0.864,-0.8675,-0.8761,-0.8776,-0.871,-0.8845,-0.8865,-0.895,-0.8976,-0.8946,-0.8953,-0.9176,-0.9179,-0.9181,-0.9156,0,0,0,0,0,0,-0.8324,-0.8352,-0.8379,-0.8472,-0.8502,-0.8625,-0.8628,-0.8644,-0.8689,-0.8691,-0.8785,-0.8799,-0.8845,-0.8938,-0.8958,-0.8987,-0.896,-0.9174,-0.9177,-0.918,-0.9155,-0.9157,-0.9159,0,0,0,0,0,-0.8315,-0.8366,-0.8381,-0.8404,-0.8538,-0.8627,-0.8644,-0.8695,-0.869,-0.8719,-0.8775,-0.8796,-0.897,-0.8946,-0.8969,-0.9001,-0.9173,-0.9176,-0.918,-0.9154,-0.9157,-0.9159,0,0,0,0,0,0,-0.8276,-0.8379,-0.8396,-0.8479,-0.8544,-0.8635,-0.8673,-0.8696,-0.8764,-0.8764,-0.8826,-0.8847,-0.8927,-0.8973,-0.8944,-0.9078,-0.9073,-0.9081,-0.9045,-0.9048,-0.9051,-0.9038,-0.8966,0,0,0,0,0,-0.8277,-0.8339,-0.8427,-0.8491,-0.8523,-0.8592,-0.8633,-0.8666,-0.8736,-0.8764,-0.8825,-0.8893,-0.8964,-0.9009,-0.9078,-0.9162,-0.9184,-0.9195,-0.9197,-0.9198,-0.9205,-0.9255,-0.9261,-0.9193,-0.9193,-0.9193,0,0,-0.828,-0.8344,-0.838,-0.8485,-0.8539,-0.8604,-0.8615,-0.8682,-0.8731,-0.8775,-0.8859,-0.8906,-0.8986,-0.9071,-0.9112,-0.9112,-0.9229,-0.9203,-0.9203,-0.921,-0.9259,-0.9265,-0.9271,-0.9195,-0.9195,-0.9195,0,0,-0.8319,-0.8373,-0.8434,-0.8487,-0.8569,-0.8615,-0.8629,-0.8718,-0.875,-0.8835,-0.887,-0.893,-0.9049,-0.9105,-0.9149,-0.921,-0.9234,-0.9231,-0.9243,-0.929,-0.9296,-0.9301,-0.9324,-0.9331,-0.9238,-0.9237,-0.9237,0,-0.8313,-0.841,-0.8462,-0.8528,-0.8574,-0.8616,-0.8679,-0.8729,-0.8829,-0.8861,-0.8858,-0.901,-0.9067,-0.9166,-0.9181,-0.9215,-0.9235,-0.9221,-0.9291,-0.9296,-0.9302,-0.9325,-0.9333,-0.9237,-0.9237,-0.9237,-0.9237,0,-0.8399,-0.8466,-0.8506,-0.86,-0.8651,-0.8715,-0.8778,-0.8824,-0.8853,-0.89,-0.8987,-0.9057,-0.9141,-0.9168,-0.9197,-0.9272,-0.927,-0.9278,-0.9274,-0.9307,-0.9329,-0.9338,-0.9236,-0.9236,-0.9236,-0.9236,0,0,-0.8418,-0.8541,-0.8555,-0.8599,-0.8692,-0.8746,-0.8813,-0.8895,-0.8933,-0.9001,-0.906,-0.916,-0.9169,-0.9219,-0.9256,-0.9297,-0.9343,-0.9302,-0.9305,-0.9308,-0.9432,-0.9425,-0.9434,-0.9359,-0.9361,-0.9363,-0.9426,0,-0.847,-0.8589,-0.8638,-0.8736,-0.8799,-0.884,-0.8899,-0.8963,-0.9009,-0.9071,-0.9122,-0.9193,-0.9199,-0.9229,-0.9272,-0.9328,-0.9369,-0.9325,-0.9416,-0.9419,-0.9395,-0.9446,-0.9439,-0.9495,-0.9435,-0.9436,-0.9437,0,-0.8545,-0.8613,-0.8716,-0.8803,-0.8832,-0.8883,-0.8963,-0.9021,-0.9096,-0.9126,-0.9182,-0.9217,-0.9291,-0.9282,-0.9385,-0.9353,-0.9394,-0.9427,-0.9431,-0.9442,-0.943,-0.9459,-0.9514,-0.9522,-0.9451,-0.945,-0.9449,0,-0.855,-0.8667,-0.8745,-0.8781,-0.8884,-0.8919,-0.8964,-0.9037,-0.9084,-0.9154,-0.9186,-0.9264,-0.9307,-0.9367,-0.9423,-0.9411,-0.9521,-0.9517,-0.955,-0.9549,-0.9572,-0.957,-0.9635,-0.9597,-0.9596,-0.9596,-0.9596,0,-0.8603,-0.8665,-0.8748,-0.8796,-0.8867,-0.8924,-0.8994,-0.9041,-0.9107,-0.9166,-0.9206,-0.9261,-0.933,-0.9395,-0.9439,-0.9518,-0.9537,-0.9565,-0.9577,-0.9562,-0.9559,-0.959,-0.9588,-0.9599,-0.9598,-0.9598,-0.9597,0,-0.8621,-0.8679,-0.8766,-0.8856,-0.888,-0.8929,-0.9007,-0.9056,-0.9103,-0.9178,-0.9199,-0.9274,-0.9352,-0.9413,-0.9515,-0.9544,-0.9629,-0.9641,-0.9603,-0.9609,-0.964,-0.9636,-0.9728,-0.9743,-0.9693,-0.9693,-0.9694,0,-0.8651,-0.87,-0.8795,-0.8836,-0.888,-0.8947,-0.8995,-0.9053,-0.9102,-0.9191,-0.9229,-0.931,-0.9377,-0.95,-0.9565,-0.9644,-0.9658,-0.9685,-0.967,-0.9655,-0.966,-0.9657,-0.9663,-0.9687,-0.9687,-0.9687,-0.9687,0,-0.8699,-0.8726,-0.8792,-0.8869,-0.8924,-0.8987,-0.9052,-0.9084,-0.9155,-0.9207,-0.9287,-0.9339,-0.9443,-0.9523,-0.9608,-0.9656,-0.9684,-0.9691,-0.9703,-0.969,-0.9667,-0.9681,-0.9609,-0.9689,-0.9689,-0.9689,-0.9689,-0.9689,-0.8725,-0.8771,-0.8845,-0.8918,-0.8972,-0.9032,-0.9082,-0.9136,-0.9203,-0.9291,-0.9322,-0.9404,-0.948,-0.9597,-0.9646,-0.9712,-0.9714,-0.9731,-0.9736,-0.9739,-0.9738,-0.9655,-0.9728,-0.9728,-0.9728,-0.9728,-0.9728,0,-0.8776,-0.8826,-0.8892,-0.8981,-0.9039,-0.9059,-0.9132,-0.9179,-0.9251,-0.9318,-0.9383,-0.9476,-0.9554,-0.9625,-0.9707,-0.9746,-0.9761,-0.9766,-0.9764,-0.9775,-0.9732,-0.9713,-0.9752,-0.9752,-0.9752,-0.9752,-0.9752,-0.9752,-0.881,-0.8888,-0.8924,-0.903,-0.908,-0.916,-0.92,-0.9256,-0.931,-0.9411,-0.9476,-0.9521,-0.9591,-0.9678,-0.9751,-0.977,-0.9799,-0.98,-0.9823,-0.9781,-0.9778,-0.9775,-0.9758,-0.9806,-0.9806,-0.9861,-0.9862,-0.9862]},{"header":{"parameterUnit":"m.s-1","parameterCategory":1,"la1":30.2991,"la2":30.254,"lo1":-89.0895,"lo2":-89.0444,"dy":0.0017,"dx":0.0017,"nx":28,"ny":28,"refTime":"2025-06-10T21:00:00:Z","depth":0,"parameterNumber":3,"parameterNumberName":"V-component_of_WINDS"},"data":[0,0,0,0,0,0,0,0,0,0,0,0,0,0,0,0,0,0,0,0,0,0,0,0,0,0,0,0,0,0,0,0,0,0,0,0,0,0,0,0,0,0,0,0,0,0,0,0,0,0,0,0,0,0,0,0,0,0,5.1863,5.1864,0,5.1933,5.1934,5.1935,5.1881,5.1879,5.1877,5.1874,5.1942,5.1946,5.195,0,0,0,0,0,0,0,0,0,0,0,0,0,5.1678,5.1682,5.1863,5.1864,5.1865,5.1933,5.1934,5.1935,5.1882,5.1879,5.1876,5.1873,5.1941,5.1945,5.195,0,0,0,0,0,0,0,0,0,0,0,0,0,5.1754,5.1683,5.1863,5.1847,5.1846,5.1933,5.1934,5.1935,5.1882,5.1879,5.1875,5.1872,5.1939,5.1945,5.1951,5.2056,0,0,5.1969,5.1971,0,0,0,0,0,0,0,0,5.175,5.1761,5.1848,5.1848,5.1847,5.1895,5.1893,5.1976,5.1883,5.1868,5.1874,5.187,5.1929,5.1935,5.1956,5.2059,5.2062,5.1969,5.1973,5.1975,5.1977,0,0,0,0,0,0,0,5.1745,5.1758,5.1891,5.185,5.1849,5.1834,5.1841,5.1909,5.1917,5.1869,5.1866,5.1875,5.1928,5.195,5.1957,5.2063,5.1969,5.1974,5.1978,5.198,5.2253,5.2257,0,0,0,0,0,0,5.1742,5.1754,5.1889,5.1893,5.1789,5.184,5.1848,5.1883,5.1916,5.1918,5.1878,5.1872,5.1942,5.195,5.1959,5.2082,5.1975,5.1981,5.1984,5.2249,5.2254,5.2258,0,0,0,0,0,0,5.1738,5.1755,5.1886,5.1823,5.1838,5.1847,5.1887,5.1886,5.1909,5.1923,5.1923,5.19,5.194,5.1951,5.2032,5.2084,5.1984,5.1989,5.2245,5.2251,5.2256,5.2331,0,0,0,0,0,0,5.1733,5.1754,5.1795,5.1824,5.1842,5.1959,5.189,5.189,5.192,5.1913,5.1943,5.1945,5.1938,5.2024,5.2038,5.209,5.1994,5.224,5.2248,5.2254,5.2324,5.2339,5.2351,0,0,0,0,0,5.1727,5.1814,5.1798,5.1814,5.1894,5.1962,5.1972,5.1964,5.1924,5.1965,5.1973,5.1944,5.2077,5.2032,5.2048,5.2103,5.2237,5.2246,5.2254,5.2318,5.2336,5.2351,0,0,0,0,0,0,5.179,5.1817,5.18,5.1899,5.1929,5.1953,5.2005,5.1983,5.2024,5.2016,5.2002,5.2009,5.2094,5.2107,5.2057,5.2205,5.215,5.2162,5.2194,5.2211,5.2224,5.2218,5.1999,0,0,0,0,0,5.1816,5.1871,5.1891,5.1976,5.1992,5.1996,5.2025,5.2016,5.2046,5.2058,5.2072,5.2101,5.2149,5.2181,5.2226,5.2326,5.233,5.2372,5.2385,5.2396,5.2406,5.2457,5.2474,5.2285,5.2285,5.2285,0,0,5.1869,5.189,5.1926,5.1989,5.2011,5.2066,5.2007,5.2068,5.2108,5.2067,5.2144,5.2155,5.2186,5.2277,5.2317,5.229,5.2459,5.2407,5.2416,5.2419,5.2467,5.2485,5.2501,5.2291,5.229,5.2289,0,0,5.1993,5.2017,5.2089,5.2112,5.2146,5.2148,5.2165,5.2193,5.2199,5.2277,5.2246,5.2292,5.2376,5.2398,5.2421,5.2552,5.2525,5.2567,5.2637,5.2686,5.2701,5.2714,5.2758,5.2774,5.2577,5.2577,5.2577,0,5.2054,5.2138,5.2128,5.2191,5.2218,5.2185,5.2256,5.2278,5.2325,5.2344,5.2313,5.2416,5.2435,5.2528,5.256,5.258,5.2597,5.2563,5.27,5.2713,5.2725,5.2767,5.2784,5.2582,5.2581,5.2581,5.258,0,5.2209,5.2267,5.2321,5.2368,5.2401,5.2468,5.2467,5.2501,5.2489,5.2493,5.257,5.2592,5.2639,5.2661,5.265,5.2752,5.2734,5.2702,5.2646,5.2748,5.2787,5.2803,5.2588,5.2587,5.2585,5.2584,0,0,5.2376,5.2415,5.2435,5.2454,5.2489,5.2532,5.2596,5.2644,5.2672,5.2706,5.2757,5.2828,5.2798,5.2823,5.2814,5.2858,5.2956,5.282,5.282,5.2842,5.3067,5.3089,5.3108,5.2939,5.2942,5.2945,5.3064,0,5.2499,5.2612,5.2605,5.271,5.2761,5.2729,5.2784,5.281,5.2816,5.2859,5.2864,5.2913,5.2872,5.2886,5.2929,5.2935,5.3001,5.2927,5.2984,5.2987,5.2976,5.3129,5.3153,5.3264,5.3079,5.3082,5.3084,0,5.2659,5.2698,5.2809,5.2833,5.2854,5.2904,5.2945,5.2988,5.3015,5.3016,5.3044,5.3026,5.3088,5.3032,5.3116,5.3066,5.3089,5.3096,5.31,5.3103,5.304,5.3134,5.33,5.3316,5.3108,5.3106,5.3104,0,5.2766,5.2846,5.2921,5.2939,5.2971,5.3006,5.302,5.3045,5.3073,5.3108,5.3126,5.3168,5.3191,5.3223,5.3216,5.3176,5.33,5.3244,5.33,5.33,5.3326,5.3324,5.3496,5.3345,5.3345,5.3345,5.3345,0,5.2904,5.2972,5.2969,5.3016,5.309,5.308,5.3153,5.3163,5.3185,5.3231,5.3206,5.3249,5.3239,5.3281,5.3276,5.3345,5.3356,5.3356,5.3353,5.3357,5.3357,5.337,5.3362,5.3349,5.3348,5.3347,5.3347,0,5.3035,5.3036,5.3116,5.3139,5.3146,5.3199,5.3218,5.326,5.3263,5.3322,5.3335,5.3339,5.3387,5.3384,5.3439,5.3435,5.3519,5.3509,5.351,5.3507,5.3562,5.3556,5.3746,5.3769,5.3606,5.3608,5.3609,0,5.3122,5.3173,5.3201,5.323,5.3247,5.3295,5.3323,5.3315,5.3344,5.3379,5.3417,5.3463,5.3499,5.3578,5.3584,5.3625,5.3614,5.3678,5.362,5.3621,5.3612,5.3608,5.3612,5.3689,5.3691,5.3692,5.3693,0,5.3275,5.3272,5.3314,5.3357,5.3391,5.3424,5.3453,5.3478,5.3472,5.3507,5.3556,5.3584,5.364,5.3685,5.3724,5.3736,5.3713,5.3712,5.3726,5.3729,5.3727,5.3726,5.3538,5.3707,5.3706,5.3705,5.3704,5.3703,5.3384,5.3427,5.3453,5.35,5.3522,5.355,5.359,5.3598,5.3639,5.3684,5.3676,5.3731,5.3754,5.3804,5.382,5.3861,5.3838,5.386,5.3865,5.387,5.3875,5.3722,5.3869,5.3868,5.3868,5.3868,5.3867,0,5.3534,5.3548,5.3592,5.3634,5.367,5.3647,5.3678,5.3709,5.3758,5.3783,5.3819,5.3874,5.3917,5.3927,5.3968,5.3999,5.3989,5.401,5.4006,5.4009,5.3895,5.3877,5.4017,5.4017,5.4017,5.4017,5.4017,5.4017,5.3615,5.3686,5.3687,5.3767,5.3781,5.3835,5.3854,5.3878,5.3898,5.3961,5.3997,5.4004,5.4022,5.4063,5.4101,5.4102,5.4117,5.4142,5.4139,5.4032,5.4017,5.4003,5.3986,5.4146,5.4146,5.4249,5.425,5.4251]}]]